Location: Banff
(51.1667°N, 115.5667°W)
Time: 20:01:22
(UTC+00:00)

X-37B - Pass Details

Date: 04 November 2020
Orbit: 384 x 390 km, 45.0° (Epoch: 26 November)

Event Time Altitude Azimuth Distance (km) Brightness Sun altitude
Exits shadow 12:22:51 10° 168° (SSE) 1,415 3.5 -21.9°
Reaches altitude 10° 12:22:52 10° 167° (SSE) 1,412 3.5 -21.9°
Maximum altitude 12:23:41 11° 152° (SSE) 1,370 3.6 -21.8°
Drops below altitude 10° 12:24:30 10° 138° (SE) 1,413 3.9 -21.7°
Sets 12:27:56 0° 98° (E) 2,270 6.0 -21.1°
